EW1617 Weather Reports


Display with metric or nautical units.
time (UTC)temp
F
wind
direction
speed
MPH
gust
MPH
rain 1hr
in
rain 24hr
in
rain mn
in
humidity
%
barometer
mb
20260903021507 60 144 1.0 5.0 0.00 0.17 0.00 99 1008.1
20260903021007 60 135 0.0 1.0 0.00 0.17 0.00 99 1008.1
20260903020507 60 135 3.0 7.0 0.00 0.17 0.00 99 1008.1
20260903020007 60 180 2.0 5.0 0.00 0.17 0.00 99 1007.9
20260903015507 60 135 1.0 5.0 0.00 0.17 0.00 99 1007.8
20260903015007 60 162 3.0 6.0 0.00 0.17 0.00 99 1007.8
20260903014507 60 117 1.0 2.0 0.00 0.17 0.00 99 1007.8
20260903014006 60 117 2.0 4.0 0.00 0.17 0.00 99 1007.8
20260903013507 60 198 0.0 2.0 0.00 0.17 0.00 99 1007.8
20260903013007 60 225 0.0 1.0 0.00 0.17 0.00 99 1007.8
20260903012507 60 261 0.0 1.0 0.00 0.17 0.00 99 1007.8
20260903012007 60 216 1.0 2.0 0.00 0.16 0.00 99 1007.8
20260903011507 60 135 5.0 6.0 0.00 0.16 0.00 99 1007.7
20260903011007 61 135 3.0 6.0 0.00 0.16 0.00 99 1007.5
20260903010512 61 135 5.0 6.0 0.00 0.16 0.00 99 1007.5
20260903010007 61 135 2.0 4.0 0.00 0.16 0.00 99 1007.5
20260903005507 61 144 2.0 6.0 0.00 0.16 0.00 99 1007.5
20260903005007 61 153 4.0 6.0 0.00 0.16 0.00 99 1007.5
20260903004507 61 144 5.0 8.0 0.00 0.16 0.00 99 1007.2
20260903004007 61 144 6.0 8.0 0.00 0.16 0.00 99 1007.2
20260903003507 61 146 5.0 7.0 0.00 0.16 0.00 99 1007.1
20260903003007 61 171 7.0 8.0 0.00 0.16 0.00 99 1007.1
20260903002508 61 117 4.0 9.0 0.00 0.16 0.00 99 1007.1
20260903002007 60 153 4.0 6.0 0.00 0.16 0.00 99 1007.1
20260903001507 60 144 6.0 7.0 0.00 0.16 0.00 99 1007.1
20260903001007 60 117 5.0 7.0 0.00 0.16 0.00 99 1007.1
20260903000507 60 162 2.0 6.0 0.00 0.16 0.00 99 1007.1
20260903000007 60 135 2.0 6.0 0.00 0.16 0.00 99 1007.1
20260902235507 60 162 4.0 8.0 0.00 0.16 0.00 99 1007.1
20260902235008 60 171 1.0 3.0 0.00 0.16 0.00 99 1007.1
20260902234507 60 117 6.0 9.0 0.00 0.16 0.00 99 1007.1
20260902234007 60 153 5.0 6.0 0.00 0.16 0.00 99 1007.1
20260902233507 59 162 5.0 7.0 0.00 0.16 0.00 99 1006.9
20260902233007 59 117 6.0 10.0 0.00 0.16 0.00 99 1007.0
20260902232507 59 135 8.0 8.0 0.00 0.16 0.00 99 1007.1
20260902232007 59 144 6.0 7.0 0.00 0.16 0.00 99 1007.1
20260902231507 59 153 5.0 7.0 0.00 0.16 0.00 99 1007.0
20260902231007 59 135 4.0 7.0 0.00 0.16 0.00 99 1006.8
20260902230507 59 135 7.0 8.0 0.00 0.15 0.00 99 1006.8
20260902230007 59 144 4.0 8.0 0.00 0.15 0.00 99 1006.8
20260902225507 59 144 4.0 10.0 0.00 0.15 0.00 99 1006.8
20260902225007 60 144 7.0 10.0 0.00 0.15 0.00 99 1006.8
20260902224508 60 153 6.0 7.0 0.00 0.15 0.00 99 1006.8
20260902224006 60 108 3.0 7.0 0.00 0.15 0.00 99 1006.8
20260902223508 60 153 7.0 9.0 0.00 0.15 0.00 99 1006.8
20260902223006 60 135 5.0 7.0 0.00 0.15 0.00 99 1006.6
20260902222512 60 198 3.0 5.0 0.00 0.15 0.00 99 1006.4
20260902222007 60 135 4.0 6.0 0.00 0.15 0.00 99 1006.4
20260902221507 60 153 3.0 6.0 0.00 0.15 0.00 99 1006.4
20260902221007 59 162 3.0 5.0 0.00 0.15 0.00 99 1006.5
20260902220507 59 108 1.0 4.0 0.00 0.15 0.00 99 1006.4
20260902220008 59 144 2.0 5.0 0.00 0.15 0.00 99 1006.4
20260902215506 59 135 1.0 3.0 0.00 0.15 0.00 99 1006.4
20260902215007 59 45 2.0 5.0 0.00 0.15 0.00 99 1006.4
20260902214507 59 153 0.0 1.0 0.00 0.15 0.00 99 1006.4
20260902214007 59 144 1.0 5.0 0.00 0.15 0.00 99 1006.4
20260902213507 59 180 0.0 1.0 0.00 0.15 0.00 99 1006.4
20260902213007 59 171 1.0 2.0 0.00 0.15 0.00 99 1006.4
20260902212507 59 54 1.0 2.0 0.00 0.15 0.00 99 1006.4
20260902212007 59 45 0.0 0.0 0.00 0.15 0.00 99 1006.6
20260902211507 59 27 1.0 4.0 0.00 0.15 0.00 99 1006.8
20260902211007 59 27 1.0 2.0 0.00 0.15 0.00 99 1006.8
20260902210506 59 144 1.0 3.0 0.00 0.15 0.00 99 1006.6
20260902210007 59 207 1.0 3.0 0.00 0.15 0.00 99 1006.4
20260902205507 59 90 2.0 4.0 0.00 0.14 0.00 99 1006.4
20260902205007 59 90 1.0 3.0 0.00 0.14 0.00 99 1006.4
20260902204508 59 189 1.0 2.0 0.00 0.14 0.00 99 1006.4
20260902204012 59 45 0.0 0.0 0.00 0.14 0.00 99 1006.2
20260902203507 59 225 0.0 0.0 0.00 0.14 0.00 99 1006.1
20260902203007 59 225 0.0 0.0 0.00 0.14 0.00 99 1006.1
20260902202507 59 225 0.0 0.0 0.00 0.14 0.00 99 1006.1
20260902202006 59 225 0.0 0.0 0.00 0.14 0.00 99 1006.1
20260902201508 59 225 0.0 0.0 0.00 0.14 0.00 99 1006.1
20260902201008 59 225 0.0 0.0 0.00 0.14 0.00 99 1006.1
20260902200507 59 180 0.0 0.0 0.00 0.14 0.00 99 1006.3
20260902200007 59 0 0.0 0.0 0.00 0.13 0.00 99 1006.4
20260902195507 59 0 0.0 0.0 0.00 0.13 0.00 99 1006.4
20260902195007 59 0 0.0 0.0 0.00 0.12 0.00 99 1006.4
20260902194507 59 0 0.0 0.0 0.00 0.11 0.00 99 1006.4
20260902194006 59 0 0.0 0.0 0.00 0.11 0.00 99 1006.4
20260902193507 59 0 0.0 0.0 0.00 0.10 0.00 99 1006.6
20260902193007 59 0 0.0 0.0 0.00 0.09 0.00 99 1006.8
20260902192507 59 0 0.0 0.0 0.00 0.09 0.00 99 1006.8
20260902192007 59 108 0.0 0.0 0.00 0.08 0.00 99 1006.8
20260902191507 59 180 0.0 0.0 0.00 0.08 0.00 99 1006.8
20260902191007 59 180 0.0 0.0 0.00 0.08 0.00 99 1006.5
20260902190507 59 180 0.0 0.0 0.00 0.07 0.00 99 1006.4
20260902190007 60 261 0.0 1.0 0.00 0.07 0.00 99 1006.6
20260902185507 60 315 0.0 1.0 0.00 0.06 0.00 99 1006.8
20260902185007 60 315 0.0 0.0 0.00 0.06 0.00 99 1006.8
20260902184507 60 315 0.0 1.0 0.00 0.06 0.00 99 1006.8
20260902184008 60 135 1.0 5.0 0.00 0.06 0.00 99 1006.8
20260902183506 60 189 1.0 5.0 0.00 0.05 0.00 99 1007.1
20260902183007 60 144 3.0 5.0 0.00 0.05 0.00 98 1007.1
20260902182507 60 113 1.0 4.0 0.00 0.05 0.00 98 1007.1
20260902182007 60 144 3.0 6.0 0.00 0.05 0.00 98 1007.2
20260902181507 60 144 6.0 8.0 0.00 0.04 0.00 98 1007.5
20260902181008 60 135 4.0 5.0 0.00 0.04 0.00 98 1007.5
20260902180507 60 135 3.0 7.0 0.00 0.04 0.00 97 1007.5
20260902180008 61 126 5.0 6.0 0.00 0.03 0.00 97 1007.5
20260902175507 61 117 2.0 5.0 0.00 0.03 0.00 96 1007.5
20260902175008 61 135 5.0 9.0 0.00 0.03 0.00 96 1007.5
20260902174507 62 135 3.0 5.0 0.00 0.02 0.00 95 1007.2
20260902174007 62 153 5.0 7.0 0.00 0.02 0.00 94 1007.2
20260902173507 63 171 4.0 6.0 0.00 0.01 0.00 94 1007.1
20260902173007 63 153 3.0 5.0 0.00 0.00 0.00 93 1007.1
20260902172507 64 135 1.0 4.0 0.00 0.00 0.00 93 1006.8
20260902172006 64 135 3.0 5.0 0.00 0.00 0.00 92 1006.8
20260902171507 64 135 5.0 7.0 0.00 0.00 0.00 91 1006.8
20260902171008 64 171 1.0 5.0 0.00 0.00 0.00 91 1006.8
20260902170507 65 198 0.0 5.0 0.00 0.00 0.00 89 1006.8
20260902170007 65 144 3.0 5.0 0.00 0.00 0.00 85 1006.8
20260902165507 65 126 3.0 5.0 0.00 0.00 0.00 84 1006.8
20260902165007 65 135 3.0 5.0 0.00 0.00 0.00 80 1006.8
20260902164507 65 171 4.0 6.0 0.00 0.00 0.00 77 1006.4
20260902164007 65 135 1.0 3.0 0.00 0.00 0.00 77 1006.5
20260902163507 65 171 2.0 4.0 0.00 0.00 0.00 76 1006.4
20260902163007 65 180 0.0 1.0 0.00 0.00 0.00 78 1006.4
20260902162507 64 171 2.0 5.0 0.00 0.00 0.00 78 1006.4
20260902162006 64 124 3.0 5.0 0.00 0.00 0.00 81 1006.4
20260902161507 64 135 0.0 1.0 0.00 0.00 0.00 86 1006.4
20260902161008 64 171 2.0 4.0 0.00 0.00 0.00 87 1006.6
20260902160507 64 180 1.0 3.0 0.00 0.00 0.00 89 1006.8
20260902160009 64 180 0.0 0.0 0.00 0.00 0.00 90 1006.8
20260902155507 63 180 1.0 2.0 0.00 0.00 0.00 90 1006.8
20260902155007 63 180 0.0 0.0 0.00 0.00 0.00 91 1006.8
20260902154507 63 180 2.0 5.0 0.00 0.00 0.00 90 1006.8
20260902154007 63 180 1.0 3.0 0.00 0.00 0.00 92 1006.8
20260902153506 63 180 0.0 0.0 0.00 0.00 0.00 93 1006.8
20260902153007 62 180 0.0 0.0 0.00 0.00 0.00 93 1007.1
20260902152507 62 180 1.0 3.0 0.00 0.00 0.00 93 1007.1
20260902152007 62 180 0.0 0.0 0.00 0.00 0.00 93 1007.1
20260902151507 62 180 0.0 1.0 0.00 0.00 0.00 93 1007.1
20260902151006 62 180 0.0 1.0 0.00 0.00 0.00 93 1007.1
20260902150508 62 180 0.0 1.0 0.00 0.00 0.00 93 1007.1
20260902150007 62 180 0.0 1.0 0.00 0.00 0.00 93 1007.4
20260902145507 62 180 0.0 0.0 0.00 0.00 0.00 93 1007.5
20260902145007 61 180 0.0 1.0 0.00 0.00 0.00 93 1007.5
20260902144508 61 180 0.0 1.0 0.00 0.00 0.00 93 1007.5
20260902144007 61 180 0.0 0.0 0.00 0.00 0.00 93 1007.5
20260902143507 61 180 0.0 0.0 0.00 0.00 0.00 93 1007.5
20260902143006 61 180 0.0 2.0 0.00 0.00 0.00 93 1007.5
20260902142507 61 180 0.0 0.0 0.00 0.00 0.00 93 1007.8
20260902142007 61 180 0.0 0.0 0.00 0.00 0.00 93 1007.8
20260902141507 61 180 0.0 0.0 0.00 0.00 0.00 93 1007.8
20260902141008 61 180 0.0 0.0 0.00 0.00 0.00 93 1007.8
20260902140507 61 180 0.0 0.0 0.00 0.00 0.00 93 1007.8
20260902140007 61 180 0.0 0.0 0.00 0.00 0.00 94 1008.1
20260902135506 61 180 0.0 0.0 0.00 0.00 0.00 94 1008.1
20260902135007 61 180 0.0 0.0 0.00 0.00 0.00 93 1008.1
20260902134507 61 180 0.0 0.0 0.00 0.00 0.00 94 1008.1
20260902134007 61 180 0.0 0.0 0.00 0.00 0.00 94 1008.1
20260902133507 61 180 0.0 1.0 0.00 0.00 0.00 94 1008.4
20260902133007 61 180 0.0 0.0 0.00 0.00 0.00 94 1008.5
20260902132507 61 180 0.0 0.0 0.00 0.00 0.00 94 1008.5
20260902132007 61 180 0.0 0.0 0.00 0.00 0.00 94 1008.5
20260902131506 61 180 0.0 0.0 0.00 0.00 0.00 94 1008.5
20260902131007 61 180 1.0 3.0 0.00 0.00 0.00 94 1008.6
20260902130508 61 180 0.0 0.0 0.00 0.00 0.00 93 1008.8
20260902130007 61 180 0.0 0.0 0.00 0.00 0.00 94 1008.8
20260902125506 61 180 0.0 0.0 0.00 0.00 0.00 94 1008.8
20260902125007 61 180 1.0 2.0 0.00 0.00 0.00 93 1008.8
20260902124507 61 180 0.0 1.0 0.00 0.00 0.00 94 1008.8
20260902124007 61 144 1.0 3.0 0.00 0.00 0.00 94 1009.0
20260902123507 61 135 0.0 1.0 0.00 0.00 0.00 94 1009.1
20260902123007 60 135 1.0 2.0 0.00 0.00 0.00 94 1009.1
20260902122507 60 90 0.0 1.0 0.00 0.00 0.00 94 1009.5
20260902122006 60 45 0.0 0.0 0.00 0.00 0.00 94 1009.4
20260902121507 60 81 1.0 3.0 0.00 0.00 0.00 94 1009.5
20260902121007 60 135 0.0 0.0 0.00 0.00 0.00 94 1009.5
20260902120507 60 135 0.0 0.0 0.00 0.00 0.00 94 1009.5
20260902120007 60 135 0.0 0.0 0.00 0.00 0.00 94 1009.5
20260902115507 60 135 0.0 0.0 0.00 0.00 0.00 94 1009.5
20260902115007 60 135 0.0 0.0 0.00 0.00 0.00 95 1009.7
20260902114507 60 135 0.0 0.0 0.00 0.00 0.00 95 1009.8
20260902114007 60 135 0.0 0.0 0.00 0.00 0.00 95 1009.8
20260902113507 60 135 0.0 0.0 0.00 0.00 0.00 94 1009.8
20260902113006 60 135 0.0 0.0 0.00 0.00 0.00 94 1009.8
20260902112507 60 135 0.0 0.0 0.00 0.00 0.00 94 1009.8
20260902112007 60 135 0.0 0.0 0.00 0.00 0.00 94 1009.8
20260902111507 60 135 0.0 0.0 0.00 0.00 0.00 94 1010.0
20260902111008 61 135 0.0 0.0 0.00 0.00 0.00 94 1010.2
20260902110507 61 135 0.0 0.0 0.00 0.00 0.00 94 1010.2
20260902110008 61 135 0.0 0.0 0.00 0.00 0.00 94 1010.2
20260902105507 61 162 1.0 3.0 0.00 0.00 0.00 94 1010.2
20260902105007 61 171 2.0 5.0 0.00 0.00 0.00 94 1010.2
20260902104507 61 153 0.0 3.0 0.00 0.00 0.00 94 1010.2
20260902104007 61 225 1.0 3.0 0.00 0.00 0.00 94 1010.2
20260902103507 61 135 0.0 3.0 0.00 0.00 0.00 94 1010.2
20260902103007 61 135 2.0 3.0 0.00 0.00 0.00 94 1010.2
20260902102506 61 216 0.0 4.0 0.00 0.00 0.00 94 1010.2
20260902102008 61 144 1.0 4.0 0.00 0.00 0.00 94 1010.2
20260902101507 61 108 1.0 4.0 0.00 0.00 0.00 94 1010.3
20260902101007 61 158 2.0 4.0 0.00 0.00 0.00 94 1010.5
20260902100507 61 207 0.0 1.0 0.00 0.00 0.00 94 1010.5
20260902100007 61 180 1.0 1.0 0.00 0.00 0.00 94 1010.5
20260902095506 61 135 2.0 5.0 0.00 0.00 0.00 94 1010.5
20260902095008 61 189 1.0 4.0 0.00 0.00 0.00 94 1010.5
20260902094507 61 180 1.0 2.0 0.00 0.00 0.00 94 1010.5
20260902094007 61 153 1.0 2.0 0.00 0.00 0.00 94 1010.5
20260902093506 61 162 3.0 5.0 0.00 0.00 0.00 94 1010.5
20260902093007 61 144 2.0 4.0 0.00 0.00 0.00 95 1010.6
20260902092507 61 135 4.0 6.0 0.00 0.00 0.00 95 1010.8
20260902092007 61 135 1.0 3.0 0.00 0.00 0.00 95 1010.8
20260902091507 61 189 1.0 5.0 0.00 0.00 0.00 95 1010.8
20260902091007 61 108 1.0 2.0 0.00 0.00 0.00 95 1010.8
20260902090507 61 63 2.0 6.0 0.00 0.00 0.00 95 1010.8
20260902090006 61 99 3.0 5.0 0.00 0.00 0.00 95 1010.8
20260902085507 61 108 2.0 7.0 0.00 0.00 0.00 95 1010.8
20260902085007 61 45 0.0 2.0 0.00 0.00 0.00 95 1011.0
20260902084507 61 153 1.0 5.0 0.00 0.00 0.00 95 1011.1
20260902084007 61 153 3.0 6.0 0.00 0.00 0.00 95 1011.1
20260902083507 61 135 2.0 5.0 0.00 0.00 0.00 95 1010.9
20260902083007 61 144 3.0 5.0 0.00 0.00 0.00 95 1011.0
20260902082507 61 153 3.0 6.0 0.00 0.00 0.00 95 1010.8
20260902082007 61 135 2.0 4.0 0.00 0.00 0.00 95 1010.8
20260902081507 61 135 4.0 7.0 0.00 0.00 0.00 95 1010.8
20260902081008 61 171 3.0 6.0 0.00 0.00 0.00 95 1010.8
20260902080507 62 180 1.0 5.0 0.00 0.00 0.00 95 1010.8
20260902080007 62 153 5.0 7.0 0.00 0.00 0.00 95 1010.8
20260902075507 62 126 3.0 5.0 0.00 0.00 0.00 95 1010.8
20260902075007 62 81 1.0 4.0 0.00 0.00 0.00 94 1010.8
20260902074507 62 171 5.0 7.0 0.00 0.00 0.00 94 1011.2
20260902074006 63 126 5.0 5.0 0.00 0.00 0.00 93 1011.2
20260902073507 63 126 4.0 7.0 0.00 0.00 0.00 93 1011.2
20260902073007 63 117 3.0 7.0 0.00 0.00 0.00 93 1011.2
20260902072507 63 144 4.0 6.0 0.00 0.00 0.00 93 1011.2
20260902072007 63 171 5.0 5.0 0.00 0.00 0.00 93 1011.2
20260902071507 63 135 2.0 5.0 0.00 0.00 0.00 93 1011.4
20260902071007 63 153 4.0 6.0 0.00 0.00 0.00 93 1011.5
20260902070506 62 153 3.0 7.0 0.00 0.00 0.00 93 1011.5
20260902070008 62 135 2.0 4.0 0.00 0.00 0.00 93 1011.5
20260902065507 62 162 1.0 3.0 0.00 0.00 0.00 93 1011.5
20260902065007 62 0 1.0 3.0 0.00 0.00 0.00 93 1011.5
20260902064508 62 144 3.0 5.0 0.00 0.00 0.00 93 1011.5
20260902064006 62 108 1.0 2.0 0.00 0.00 0.00 93 1011.5
20260902063507 63 180 1.0 5.0 0.00 0.00 0.00 92 1011.5
20260902063007 63 153 2.0 5.0 0.00 0.00 0.00 92 1011.5
20260902062507 63 99 4.0 6.0 0.00 0.00 0.00 92 1011.5
20260902062007 63 135 3.0 5.0 0.00 0.00 0.00 92 1011.5
20260902061507 63 99 4.0 8.0 0.00 0.00 0.00 92 1011.5
20260902061007 63 135 1.0 4.0 0.00 0.00 0.00 92 1011.5
20260902060507 63 81 2.0 5.0 0.00 0.00 0.00 92 1011.5
20260902060006 63 117 3.0 6.0 0.00 0.00 0.00 92 1011.5
20260902055507 63 144 5.0 9.0 0.00 0.00 0.00 92 1011.5
20260902055008 63 162 1.0 4.0 0.00 0.00 0.00 92 1011.5
20260902054507 63 99 3.0 6.0 0.00 0.00 0.00 92 1011.5
20260902054007 63 135 2.0 5.0 0.00 0.00 0.00 92 1011.7
20260902053507 63 108 3.0 7.0 0.00 0.00 0.00 92 1011.5
20260902053007 64 135 2.0 4.0 0.00 0.00 0.00 92 1011.7
20260902052507 64 153 6.0 8.0 0.00 0.00 0.00 92 1011.9
20260902052007 64 135 4.0 6.0 0.00 0.00 0.00 92 1011.8
20260902051507 64 198 4.0 6.0 0.00 0.00 0.00 92 1011.5
20260902051007 64 135 2.0 4.0 0.00 0.00 0.00 92 1011.7
20260902050507 64 108 5.0 8.0 0.00 0.00 0.00 92 1011.5
20260902050009 64 126 5.0 9.0 0.00 0.00 0.00 92 1011.5
20260902045507 64 135 6.0 8.0 0.00 0.00 0.00 92 1011.8
20260902045007 64 99 3.0 5.0 0.00 0.00 0.00 92 1011.9
20260902044507 64 135 6.0 8.0 0.00 0.00 0.00 92 1011.9
20260902044007 64 153 7.0 11.0 0.00 0.00 0.00 92 1011.6
20260902043507 64 180 7.0 8.0 0.00 0.00 0.00 91 1011.5
20260902043007 64 144 7.0 9.0 0.00 0.00 0.00 91 1011.5
20260902042506 64 153 5.0 8.0 0.00 0.00 0.00 90 1011.5
20260902042007 64 198 6.0 7.0 0.00 0.00 0.00 90 1011.5
20260902041507 64 126 3.0 5.0 0.00 0.00 0.00 89 1011.5
20260902041007 64 146 4.0 5.0 0.00 0.00 0.00 89 1011.5
20260902040507 65 144 3.0 6.0 0.00 0.00 0.00 88 1011.5
20260902040007 65 126 3.0 7.0 0.00 0.00 0.00 88 1011.5
20260902035507 65 144 4.0 9.0 0.00 0.00 0.00 87 1011.5
20260902035007 65 135 8.0 9.0 0.00 0.00 0.00 86 1011.5
20260902034507 65 171 3.0 6.0 0.00 0.00 0.00 86 1011.5
20260902034007 65 126 5.0 6.0 0.00 0.00 0.00 85 1011.5
20260902033507 65 135 6.0 7.0 0.00 0.00 0.00 85 1011.5
20260902033007 65 162 5.0 9.0 0.00 0.00 0.00 84 1011.4
20260902032508 65 135 6.0 9.0 0.00 0.00 0.00 84 1011.2
20260902032008 65 162 4.0 6.0 0.00 0.00 0.00 85 1011.4
20260902031506 65 135 3.0 5.0 0.00 0.00 0.00 84 1011.5
20260902031007 66 117 3.0 5.0 0.00 0.00 0.00 84 1011.5
20260902030507 66 126 4.0 7.0 0.00 0.00 0.00 83 1011.4
20260902030007 66 117 2.0 5.0 0.00 0.00 0.00 83 1011.2
20260902025507 66 171 3.0 5.0 0.00 0.00 0.00 82 1011.2
20260902025007 66 153 5.0 7.0 0.00 0.00 0.00 82 1011.2
20260902024507 66 135 5.0 7.0 0.00 0.00 0.00 82 1011.2
20260902024007 66 126 3.0 5.0 0.00 0.00 0.00 82 1011.2
20260902023508 66 144 5.0 8.0 0.00 0.00 0.00 80 1011.2
20260902023007 66 144 5.0 7.0 0.00 0.00 0.00 80 1011.2
20260902022506 67 81 7.0 9.0 0.00 0.00 0.00 79 1011.2
20260902022007 67 162 7.0 8.0 0.00 0.00 0.00 78 1011.2